Time,TemperatureF,DewpointF,PressureIn,WindDirection,WindDirectionDegrees,WindSpeedMPH,WindSpeedGustMPH,Humidity,HourlyPrecipIn,Conditions,Clouds,dailyrainin,SolarRadiationWatts/m^2,SoftwareType,DateUTC
2013-01-21 00:00:00,15.0,13.0,-100.00,SSE,157,1.0,-999.0,88,-99.99,,,-99.99,0.000000,,2013-01-21 05:00:00,
2013-01-21 00:34:00,15.0,13.0,-100.00,SSE,157,1.0,-999.0,88,-99.99,,,-99.99,0.000000,,2013-01-21 05:34:00,
2013-01-21 00:43:00,15.0,13.0,-100.00,SSE,157,1.0,-999.0,88,-99.99,,,-99.99,0.000000,,2013-01-21 05:43:00,
2013-01-21 00:53:00,15.0,13.0,-100.00,SSE,157,1.0,-999.0,88,-99.99,,,-99.99,0.000000,,2013-01-21 05:53:00,
2013-01-21 01:00:00,16.0,11.0,-100.00,WSW,247,2.0,-999.0,80,-99.99,,,-99.99,0.000000,,2013-01-21 06:00:00,
2013-01-21 01:43:00,16.0,11.0,-100.00,WSW,247,2.0,-999.0,80,-99.99,,,-99.99,0.000000,,2013-01-21 06:43:00,
2013-01-21 01:53:00,16.0,11.0,-100.00,WSW,247,2.0,-999.0,80,-99.99,,,-99.99,0.000000,,2013-01-21 06:53:00,
2013-01-21 02:00:00,16.0,12.0,-100.00,WNW,292,4.0,-999.0,85,-99.99,,,-99.99,0.000000,,2013-01-21 07:00:00,
2013-01-21 02:33:00,16.0,12.0,-100.00,WNW,292,4.0,-999.0,85,-99.99,,,-99.99,0.000000,,2013-01-21 07:33:00,
2013-01-21 02:43:00,16.0,12.0,-100.00,WNW,292,4.0,-999.0,85,-99.99,,,-99.99,0.000000,,2013-01-21 07:43:00,
2013-01-21 02:53:00,16.0,12.0,-100.00,WNW,292,4.0,-999.0,85,-99.99,,,-99.99,0.000000,,2013-01-21 07:53:00,
2013-01-21 03:00:00,15.0,13.0,-100.00,West,270,6.0,-999.0,90,-99.99,,,-99.99,0.000000,,2013-01-21 08:00:00,
2013-01-21 03:43:00,15.0,13.0,-100.00,West,270,6.0,-999.0,90,-99.99,,,-99.99,0.000000,,2013-01-21 08:43:00,
2013-01-21 03:53:00,15.0,13.0,-100.00,West,270,6.0,-999.0,90,-99.99,,,-99.99,0.000000,,2013-01-21 08:53:00,
2013-01-21 04:00:00,15.0,14.0,-100.00,WNW,292,6.0,-999.0,93,-99.99,,,-99.99,0.000000,,2013-01-21 09:00:00,
2013-01-21 04:43:00,15.0,14.0,-100.00,WNW,292,6.0,-999.0,93,-99.99,,,-99.99,0.000000,,2013-01-21 09:43:00,
2013-01-21 04:53:00,15.0,14.0,-100.00,WNW,292,6.0,-999.0,93,-99.99,,,-99.99,0.000000,,2013-01-21 09:53:00,
2013-01-21 05:00:00,14.0,13.0,-100.00,WNW,292,8.0,-999.0,93,-99.99,,,-99.99,0.000000,,2013-01-21 10:00:00,
2013-01-21 05:43:00,14.0,13.0,-100.00,WNW,292,8.0,-999.0,93,-99.99,,,-99.99,0.000000,,2013-01-21 10:43:00,
2013-01-21 05:53:00,14.0,13.0,-100.00,WNW,292,8.0,-999.0,93,-99.99,,,-99.99,0.000000,,2013-01-21 10:53:00,
2013-01-21 06:00:00,14.0,13.0,-100.00,WNW,292,7.0,-999.0,96,-99.99,,,-99.99,0.000000,,2013-01-21 11:00:00,
2013-01-21 06:33:00,14.0,13.0,-100.00,WNW,292,7.0,-999.0,96,-99.99,,,-99.99,0.000000,,2013-01-21 11:33:00,
2013-01-21 06:43:00,14.0,13.0,-100.00,WNW,292,7.0,-999.0,96,-99.99,,,-99.99,0.000000,,2013-01-21 11:43:00,
2013-01-21 06:53:00,14.0,13.0,-100.00,WNW,292,7.0,-999.0,96,-99.99,,,-99.99,0.000000,,2013-01-21 11:53:00,
2013-01-21 07:00:00,14.0,13.0,-100.00,WNW,292,7.0,-999.0,97,-99.99,,,-99.99,0.000000,,2013-01-21 12:00:00,
2013-01-21 07:43:00,14.0,13.0,-100.00,WNW,292,7.0,-999.0,97,-99.99,,,-99.99,0.000000,,2013-01-21 12:43:00,
2013-01-21 07:53:00,14.0,13.0,-100.00,WNW,292,7.0,-999.0,97,-99.99,,,-99.99,0.000000,,2013-01-21 12:53:00,
2013-01-21 08:00:00,13.0,12.0,-100.00,WNW,292,9.0,-999.0,96,-99.99,,,-99.99,0.000000,,2013-01-21 13:00:00,
2013-01-21 08:33:00,13.0,12.0,-100.00,WNW,292,9.0,-999.0,96,-99.99,,,-99.99,0.000000,,2013-01-21 13:33:00,
2013-01-21 08:43:00,13.0,12.0,-100.00,WNW,292,9.0,-999.0,96,-99.99,,,-99.99,0.000000,,2013-01-21 13:43:00,
2013-01-21 08:54:00,13.0,12.0,-100.00,WNW,292,9.0,-999.0,96,-99.99,,,-99.99,0.000000,,2013-01-21 13:54:00,
2013-01-21 09:00:00,12.0,12.0,-100.00,WNW,292,7.0,-999.0,97,-99.99,,,-99.99,22.040001,,2013-01-21 14:00:00,
2013-01-21 09:43:00,12.0,12.0,-100.00,WNW,292,7.0,-999.0,97,-99.99,,,-99.99,22.040001,,2013-01-21 14:43:00,
2013-01-21 09:54:00,12.0,12.0,-100.00,WNW,292,7.0,-999.0,97,-99.99,,,-99.99,22.040001,,2013-01-21 14:54:00,
2013-01-21 10:00:00,12.0,11.0,-100.00,WNW,292,9.0,-999.0,97,-99.99,,,-99.99,85.839996,,2013-01-21 15:00:00,
2013-01-21 10:43:00,12.0,11.0,-100.00,WNW,292,9.0,-999.0,97,-99.99,,,-99.99,85.839996,,2013-01-21 15:43:00,
2013-01-21 10:53:00,12.0,11.0,-100.00,WNW,292,9.0,-999.0,97,-99.99,,,-99.99,85.839996,,2013-01-21 15:53:00,
2013-01-21 11:00:00,11.0,11.0,-100.00,NW,315,9.0,-999.0,96,-99.99,,,-99.99,182.119995,,2013-01-21 16:00:00,
2013-01-21 11:44:00,11.0,11.0,-100.00,NW,315,9.0,-999.0,96,-99.99,,,-99.99,182.119995,,2013-01-21 16:44:00,
2013-01-21 11:53:00,11.0,11.0,-100.00,NW,315,9.0,-999.0,96,-99.99,,,-99.99,182.119995,,2013-01-21 16:53:00,
2013-01-21 12:00:00,11.0,10.0,-100.00,WNW,292,9.0,-999.0,96,-99.99,,,-99.99,180.960007,,2013-01-21 17:00:00,
2013-01-21 12:43:00,11.0,10.0,-100.00,WNW,292,9.0,-999.0,96,-99.99,,,-99.99,180.960007,,2013-01-21 17:43:00,
2013-01-21 12:53:00,11.0,10.0,-100.00,WNW,292,9.0,-999.0,96,-99.99,,,-99.99,180.960007,,2013-01-21 17:53:00,
2013-01-21 13:00:00,10.0,9.0,-100.00,WNW,292,11.0,-999.0,95,-99.99,,,-99.99,252.880005,,2013-01-21 18:00:00,
2013-01-21 13:43:00,10.0,9.0,-100.00,WNW,292,11.0,-999.0,95,-99.99,,,-99.99,252.880005,,2013-01-21 18:43:00,
2013-01-21 13:53:00,10.0,9.0,-100.00,WNW,292,11.0,-999.0,95,-99.99,,,-99.99,252.880005,,2013-01-21 18:53:00,
2013-01-21 14:00:00,9.0,8.0,-100.00,West,270,13.0,-999.0,95,-99.99,,,-99.99,241.279999,,2013-01-21 19:00:00,
2013-01-21 14:43:00,9.0,8.0,-100.00,West,270,13.0,-999.0,95,-99.99,,,-99.99,241.279999,,2013-01-21 19:43:00,
2013-01-21 14:53:00,9.0,8.0,-100.00,West,270,13.0,-999.0,95,-99.99,,,-99.99,241.279999,,2013-01-21 19:53:00,
2013-01-21 16:00:00,8.0,6.0,-100.00,WNW,292,11.0,-999.0,94,-99.99,,,-99.99,126.440002,,2013-01-21 21:00:00,
2013-01-21 16:43:00,8.0,6.0,-100.00,WNW,292,11.0,-999.0,94,-99.99,,,-99.99,126.440002,,2013-01-21 21:43:00,
2013-01-21 16:54:00,8.0,6.0,-100.00,WNW,292,11.0,-999.0,94,-99.99,,,-99.99,126.440002,,2013-01-21 21:54:00,
2013-01-21 17:00:00,7.0,6.0,-100.00,WNW,292,9.0,-999.0,94,-99.99,,,-99.99,61.480000,,2013-01-21 22:00:00,
2013-01-21 17:33:00,7.0,6.0,-100.00,WNW,292,9.0,-999.0,94,-99.99,,,-99.99,61.480000,,2013-01-21 22:33:00,
2013-01-21 17:43:00,7.0,6.0,-100.00,WNW,292,9.0,-999.0,94,-99.99,,,-99.99,61.480000,,2013-01-21 22:43:00,
2013-01-21 17:53:00,7.0,6.0,-100.00,WNW,292,9.0,-999.0,94,-99.99,,,-99.99,61.480000,,2013-01-21 22:53:00,
2013-01-21 18:00:00,7.0,6.0,-100.00,WNW,292,9.0,-999.0,94,-99.99,,,-99.99,9.280000,,2013-01-21 23:00:00,
2013-01-21 18:33:00,7.0,6.0,-100.00,WNW,292,9.0,-999.0,94,-99.99,,,-99.99,9.280000,,2013-01-21 23:33:00,
2013-01-21 18:43:00,7.0,6.0,-100.00,WNW,292,9.0,-999.0,94,-99.99,,,-99.99,9.280000,,2013-01-21 23:43:00,
2013-01-21 18:53:00,7.0,6.0,-100.00,WNW,292,9.0,-999.0,94,-99.99,,,-99.99,9.280000,,2013-01-21 23:53:00,
2013-01-21 19:00:00,7.0,5.0,-100.00,WNW,292,9.0,-999.0,94,-99.99,,,-99.99,0.000000,,2013-01-22 00:00:00,
2013-01-21 19:33:00,7.0,5.0,-100.00,WNW,292,9.0,-999.0,94,-99.99,,,-99.99,0.000000,,2013-01-22 00:33:00,
2013-01-21 19:43:00,7.0,5.0,-100.00,WNW,292,9.0,-999.0,94,-99.99,,,-99.99,0.000000,,2013-01-22 00:43:00,
2013-01-21 19:53:00,7.0,5.0,-100.00,WNW,292,9.0,-999.0,94,-99.99,,,-99.99,0.000000,,2013-01-22 00:53:00,
2013-01-21 21:00:00,6.0,5.0,-100.00,WNW,292,10.0,-999.0,94,-99.99,,,-99.99,0.000000,,2013-01-22 02:00:00,
2013-01-21 21:43:00,6.0,5.0,-100.00,WNW,292,10.0,-999.0,94,-99.99,,,-99.99,0.000000,,2013-01-22 02:43:00,
2013-01-21 21:53:00,6.0,5.0,-100.00,WNW,292,10.0,-999.0,94,-99.99,,,-99.99,0.000000,,2013-01-22 02:53:00,
2013-01-21 22:00:00,5.0,4.0,-100.00,NW,315,9.0,-999.0,94,-99.99,,,-99.99,0.000000,,2013-01-22 03:00:00,
2013-01-21 22:43:00,5.0,4.0,-100.00,NW,315,9.0,-999.0,94,-99.99,,,-99.99,0.000000,,2013-01-22 03:43:00,
2013-01-21 22:53:00,5.0,4.0,-100.00,NW,315,9.0,-999.0,94,-99.99,,,-99.99,0.000000,,2013-01-22 03:53:00,
2013-01-21 23:00:00,4.0,3.0,-100.00,NW,315,8.0,-999.0,94,-99.99,,,-99.99,0.000000,,2013-01-22 04:00:00,
2013-01-21 23:43:00,4.0,3.0,-100.00,NW,315,8.0,-999.0,94,-99.99,,,-99.99,0.000000,,2013-01-22 04:43:00,
2013-01-21 23:53:00,4.0,3.0,-100.00,NW,315,8.0,-999.0,94,-99.99,,,-99.99,0.000000,,2013-01-22 04:53:00,